Вернуться в каталог

FENGYUN 1C DEB

АктивенSSO
NORAD 38494·DEBRIS·🇨🇳 China

Запущен May 10, 1999 с Taiyuan Satellite Launch Center

Loading…

Ближайшие Пролёты (ближайшие 24 часа)

TLE

УстаревающийSource: Space-Track

Эпоха: Sep 8, 2026, 18:24 UTC

1 38494U 99025ESD 26251.76688375  .00005998  00000-0  20472-2 0  9997
2 38494  98.4439 187.9901 0372629 325.7906  31.9752 14.04140279109394

Отслеживайте FENGYUN 1C DEB в реальном времени с AllMySat

Download on the App Store